STARLINK-3356, 51133

Orbit data source: Space-Track

STARLINK-3356, 51133 is a payload satellite owned by SpaceX/Seattle (US) in LEO that was launched on Wed, 19 Jan 2022 UTC via an FALCON 9 launch vehicle from the Air Force Eastern Test Range (AFETR). Payload-class satellites include a variety of spacecraft equipped with specific instruments for various scientific and technological missions. These include communications satellites like Starlink; space stations such as the ISS; scientific satellites like the Hubble; Earth observation satellites from companies like Planet Labs, Umbra, and HawkEye 360; GPS; miniature CubeSats for education and research; and military/defense satellites.

Loading next visibility...
Identifier
51133, 2022-005AF
Orbit
LEO
Country
Flag of USUS
Related business
Manufacturer
SpaceX/Seattle
Mission
Operational Commercial Communications
Bus & Motor
STARLINK, Unknown motor
Mass
297 kg wet, ~275 kg dry
Launch date (UTC)
2022-01-19 (4 years ago)
Launch vehicle
FALCON 9
Launch site
Air Force Eastern Test Range (AFETR)
Object type
Payload
Rocket body
Debris
Shape & HBR
Box + 1 Pan, 10.1 m
Radar Cross Section
13.562 m², Large (>1 m²)

Expand to show TLE details & history
Last TLE update: 9 hours ago

TLE from 9 hours ago
0 STARLINK-3356
1 51133U 22005AF  26094.23367378  .00000821  00000-0  69635-4 0  9996
2 51133  53.2173 184.4506 0001446  95.5812 264.5345 15.08848117232581
Epoch: 2026-04-04T05:36Z
TLE epoch observation values (Epoch: 2026-04-04T05:36:29.414Z)
Latitude
-0.00004°
Longitude
-92.22837°
Altitude
540.711 km
Speed
7.593 km/s
True Right ascension
12h 17m 48s
True Declination
0° 00' 00"
Sunlit
Object was in full shadow at epoch
Visualization orbit readout
Latitude
Unknown
Longitude
Unknown
Altitude
Unknown
Speed
Unknown
Apparent Right ascension
Unknown
Apparent Declination
Unknown
Sunlit
N/A
Visualization observer readout
Local Sidereal Time
20:30:01
Azimuth
Unknown
Elevation
Unknown
Doppler factor
Unknown
Orbital elements
Apogee altitude
540.964 km
Perigee altitude
538.963 km
Semi-major axis
6,918.101 km
Eccentricity
0.00014
Inclination
53.2173°
RAAN
184.4506°
Arg. of periapsis
95.5812°
True anomaly
264.51801°
Mean anomaly
264.5345°
Eccentric anomaly
264.52625°
Mean motion
3.77192 °/min
Orbital period
95.44 mins
BSTAR
0.000069635
Loading maneuver chart data...
Computing Atmospheric mass density...
Loading historical data...
Loading historical data...
Loading historical data...
Loading historical data...
Loading historical data...
Loading historical data...
Loading historical data...

Documentation

Showing up to 5 results
|